Torna al catalogo

COSMOS 2133

AttivoMilitareGEO
NORAD 21111·PAYLOAD·🇷🇺 Russia

Lanciato Feb 14, 1991 da Baikonur Cosmodrome

Loading…

TLE

AggiornatoSource: Space-Track

Epoca: Sep 13, 2026, 17:38 UTC

1 21111U 91010A   26256.73505454 -.00000128  00000-0  00000-0 0  9993
2 21111  13.1864 342.1364 0006402 206.8484 144.9511  1.00260290130322

Traccia COSMOS 2133 in tempo reale con AllMySat

Download on the App Store